STARLINK-6152, 57121

Orbit data source: Space-Track

STARLINK-6152, 57121 is a payload satellite owned by SpaceX/Seattle (US) in LEO that was launched on Fri, 23 Jun 2023 UTC via an FALCON 9 launch vehicle from the Air Force Eastern Test Range (AFETR). Payload-class satellites include a variety of spacecraft equipped with specific instruments for various scientific and technological missions. These include communications satellites like Starlink; space stations such as the ISS; scientific satellites like the Hubble; Earth observation satellites from companies like Planet Labs, Umbra, and HawkEye 360; GPS; miniature CubeSats for education and research; and military/defense satellites.

Loading next visibility...
Identifier
57121, 2023-090W
Orbit
LEO
Country
Flag of USUS
Related business
Manufacturer
SpaceX/Seattle
Mission
Operational Commercial Communications
Bus & Motor
STARLINK, Unknown motor
Mass
305 kg wet, ~290 kg dry
Launch date (UTC)
2023-06-23 (3 years ago)
Launch vehicle
FALCON 9
Launch site
Air Force Eastern Test Range (AFETR)
Object type
Payload
Rocket body
Debris
Shape & HBR
Box + 1 Pan, 10.1 m
Radar Cross Section
11.087 m², Large (>1 m²)

Expand to show TLE details & history
Last TLE update: 2 days ago

TLE from 2 days ago
0 STARLINK-6152
1 57121U 23090W   26171.06699436  .00003259  00000-0  12780-3 0  9990
2 57121  43.0018  63.0423 0001061 252.0491 108.0245 15.27602295165802
Epoch: 2026-06-20T01:36Z
TLE epoch observation values (Epoch: 2026-06-20T01:36:28.312Z)
Latitude
-0.00003°
Longitude
130.63735°
Altitude
482.983 km
Speed
7.626 km/s
True Right ascension
04h 12m 10s
True Declination
0° 00' 00"
Sunlit
Object was in daylight at epoch
Visualization orbit readout
Latitude
Unknown
Longitude
Unknown
Altitude
Unknown
Speed
Unknown
Apparent Right ascension
Unknown
Apparent Declination
Unknown
Sunlit
N/A
Visualization observer readout
Local Sidereal Time
21:28:05
Azimuth
Unknown
Elevation
Unknown
Doppler factor
Unknown
Orbital elements
Apogee altitude
485.655 km
Perigee altitude
484.199 km
Semi-major axis
6,863.064 km
Eccentricity
0.00011
Inclination
43.0018°
RAAN
63.0423°
Arg. of periapsis
252.0491°
True anomaly
108.03606°
Mean anomaly
108.0245°
Eccentric anomaly
108.03028°
Mean motion
3.81739 °/min
Orbital period
94.31 mins
BSTAR
0.0001278
Loading maneuver chart data...
Computing Atmospheric mass density...
Loading historical data...
Loading historical data...
Loading historical data...
Loading historical data...
Loading historical data...
Loading historical data...
Loading historical data...

Documentation

Showing up to 5 results
|